Temp
21 20 21 21 24 22 22 24 21 24 25 25 25 26 27 27 27 28 23 24 26 26 25 24 23 20 21 21 22 22 22 21 21 22 22 21 21 20 19 19 19 19 19 18 18 19 18 18 18
20 20 20 20 23 24 25 22 23 25 26 24 25 26 26 28 26 25 25 24 25 26 25 23 23 19 20 20 21 22 21 21 21 21 21 20 20 20 19 19 19 19 19 18 18 18 18 18 18
20 20 22 23 21 25 25 22 25 25 24 24 27 26 27 28 25 25 25 24 25 24 24 23 22 18 19 20 21 21 20 20 21 21 20 20 20 19 19 19 19 19 19 18 18 18 18 18 18
20 20 19 21 22 22 24 24 23 24 25 25 26 27 26 25 25 24 25 25 24 24 23 23 22 18 18 19 20 20 20 19 20 20 20 20 19 19 20 19 19 19 19 18 18 18 18 17 17
18 19 20 19 20 21 20 22 22 24 24 25 25 26 26 25 25 24 24 25 24 23 23 22 22 18 18 18 19 20 20 19 19 20 20 19 19 20 20 19 19 19 18 18 18 18 17 17 17
20 18 19 20 20 22 21 23 24 24 24 25 25 25 26 22 22 24 23 24 24 23 22 21 21 18 18 18 19 19 20 20 18 19 20 20 20 20 19 19 19 19 18 17 17 17 17 16 16
20 19 21 19 20 21 23 22 23 25 25 25 24 25 25 24 22 22 22 23 23 23 22 21 20 18 18 18 18 19 19 19 19 21 20 20 19 19 19 19 19 18 18 17 17 17 17 16 16
19 20 17 18 20 22 23 22 24 24 25 25 25 25 26 24 21 21 20 20 22 21 21 21 19 18 17 18 18 18 18 18 19 20 19 19 18 18 18 18 19 18 17 17 17 17 16 16 16
16 19 19 19 20 22 22 22 23 23 24 23 24 25 24 21 20 19 18 18 19 20 20 19 18 18 18 18 18 18 18 18 18 18 19 19 18 18 17 17 17 17 17 17 17 17 16 16 16
19 18 19 19 21 22 22 23 23 23 23 23 23 24 22 20 20 21 20 20 17 18 19 19 18 18 17 17 18 17 17 17 18 18 18 18 18 18 18 17 16 16 16 16 17 17 16 16 15
18 19 18 19 20 20 22 20 22 22 22 23 23 24 23 22 21 21 21 21 20 17 18 18 18 18 17 17 17 17 17 17 17 17 17 17 17 18 17 16 16 15 15 16 16 17 15 15 15
18 17 19 20 20 20 21 23 21 21 22 23 24 24 22 22 22 22 21 21 19 18 18 19 18 18 18 17 16 17 16 16 16 17 16 17 16 16 15 15 16 15 15 15 15 15 14 14 14
17 18 19 19 20 20 20 20 21 20 22 23 23 21 22 22 23 22 22 21 19 19 18 18 18 18 18 17 16 16 16 15 15 16 16 16 15 15 15 14 15 15 14 15 15 14 14 14 14
18 18 18 19 19 20 19 20 21 22 22 22 22 22 22 23 23 23 20 20 18 19 18 18 18 18 17 17 16 16 15 15 15 15 15 15 15 14 15 14 15 14 15 14 14 14 14 14 14
18 18 18 18 20 20 19 20 20 22 22 21 22 23 23 23 23 22 22 21 19 19 18 18 17 17 17 16 16 16 15 15 15 15 14 14 14 14 14 14 14 14 14 14 14 14 14 13 13
17 17 17 19 18 19 20 20 22 23 21 22 22 22 23 23 23 23 22 21 20 18 17 18 17 16 16 16 16 16 15 15 15 15 14 14 14 14 14 14 14 14 14 13 14 14 13 14 13
15 17 16 18 19 19 19 20 20 21 21 21 22 23 22 22 23 22 21 20 19 18 17 18 17 16 16 15 15 15 14 14 14 14 14 14 14 14 14 14 14 14 14 13 14 14 14 14 14
16 15 16 17 18 19 18 19 20 20 20 21 21 22 22 22 23 23 21 20 18 17 17 18 16 15 15 14 14 14 14 14 14 14 13 13 14 14 14 14 13 13 13 13 14 14 13 14 14
16 15 15 16 17 17 18 18 19 19 20 20 21 21 22 22 24 22 20 18 16 15 16 15 14 14 14 14 14 14 14 14 13 14 14 13 14 14 14 14 14 13 13 13 13 13 13 13 13
16 15 15 16 16 17 17 18 19 19 20 20 21 21 22 22 23 22 19 16 15 15 15 14 14 14 14 14 14 14 14 14 14 13 13 14 13 14 14 13 13 13 12 13 13 14 13 13 13
15 15 15 15 16 17 17 18 19 20 20 21 21 21 22 22 23 23 19 16 15 15 14 13 14 14 13 13 13 14 14 14 14 14 14 13 13 13 14 14 13 12 12 13 13 13 14 13 13
14 15 15 15 15 16 17 17 20 19 20 20 21 21 21 22 22 22 20 17 15 15 13 13 14 14 13 13 13 13 14 14 14 14 14 14 14 13 13 13 13 12 12 12 13 13 14 14 13
15 15 15 15 15 15 15 15 18 19 21 21 21 21 21 22 23 22 19 17 15 13 12 13 13 13 13 13 13 13 13 13 14 14 13 12 12 12 12 12 12 12 12 12 13 13 13 14 14
15 15 15 15 15 14 16 16 18 19 19 19 19 20 21 22 22 20 18 16 16 13 12 12 12 13 12 12 13 13 13 13 13 13 12 12 11 12 12 12 13 12 12 13 13 13 13 14 14
14 14 14 14 13 15 16 15 18 19 17 17 17 18 19 20 21 18 17 17 16 13 13 12 12 13 12 12 13 13 13 13 13 13 13 12 11 11 11 11 12 12 13 13 13 13 14 15 15
13 14 15 15 15 15 16 16 18 17 17 18 18 18 18 18 19 18 17 17 16 14 13 12 12 14 12 12 13 13 13 13 13 13 13 12 12 11 12 12 12 13 13 13 13 14 14 15 15
13 13 14 13 14 14 17 18 18 18 19 18 18 18 17 17 17 19 17 17 15 14 13 12 13 13 12 12 13 13 13 13 12 13 13 12 12 12 13 12 12 12 12 12 13 13 14 14 15
14 14 13 12 13 13 17 17 19 17 17 18 17 17 16 16 17 18 18 16 15 15 13 12 12 13 12 12 13 13 12 13 13 13 12 12 12 12 12 12 13 12 11 11 12 12 13 15 14
13 13 12 12 13 14 15 18 18 17 17 17 17 16 15 14 16 16 16 16 15 14 12 12 12 12 12 12 13 12 12 12 12 12 12 12 12 12 12 12 12 12 12 11 11 11 11 12 13
14 14 14 12 13 12 13 16 17 17 17 17 16 15 14 13 15 15 15 15 14 13 12 12 12 12 12 12 13 13 12 12 12 12 12 12 12 12 12 12 12 12 12 12 11 11 12 12 12
Height
778 781 782 783 793 796 798 787 786 779 774 766 764 763 762 759 766 774 750 751 753 755 759 762 763 765 769 773 776 779 781 782 785 787 790 792 795 798 803 807 809 813 815 818 820 822 825 827 829
776 780 783 786 792 793 784 785 780 768 764 762 761 760 761 758 752 751 752 751 754 755 758 761 763 766 770 773 775 778 781 784 786 790 792 795 798 800 804 808 811 816 818 820 823 824 826 829 830
776 778 781 784 794 783 779 777 767 765 761 762 759 756 753 751 749 749 748 750 753 755 757 759 762 765 769 773 776 779 781 784 787 789 792 795 798 802 807 810 814 817 819 822 825 827 829 831 832
774 779 787 788 786 777 772 768 767 767 761 759 758 760 750 745 746 747 747 749 752 755 757 759 762 766 769 773 777 779 781 783 786 789 791 795 798 801 807 813 815 818 820 823 827 829 831 833 834
773 779 787 790 785 776 775 769 768 766 765 760 759 758 752 743 743 745 746 748 751 754 757 759 762 765 770 772 775 779 781 783 785 789 791 795 798 802 805 811 816 819 821 824 826 829 832 835 837
776 779 788 783 783 771 769 763 761 761 759 756 759 759 750 744 743 743 745 748 751 754 757 759 762 765 769 772 775 776 779 782 784 787 790 795 801 804 806 808 818 819 821 825 826 830 833 837 839
772 777 774 781 780 773 759 758 762 758 757 755 752 758 747 746 744 744 747 748 750 754 756 759 762 766 769 771 774 776 778 780 783 787 791 795 799 803 804 809 810 822 822 824 827 831 833 837 841
770 772 783 780 776 768 754 757 750 753 752 748 747 752 750 745 744 745 747 749 749 752 755 758 761 764 768 772 773 775 777 780 783 786 789 793 796 799 804 808 808 820 822 822 826 831 835 838 841
772 774 774 772 774 760 755 756 751 750 750 750 747 745 744 745 744 745 748 749 749 749 752 755 758 762 766 770 772 775 777 779 782 785 788 792 795 799 802 807 812 820 820 821 823 831 836 840 843
767 770 766 764 757 754 753 752 751 753 752 750 748 743 743 744 743 743 744 744 747 745 748 751 755 759 763 767 771 774 776 778 780 783 787 791 794 798 801 805 808 818 819 820 821 830 836 842 845
763 759 761 757 754 754 751 754 749 750 753 747 744 740 741 742 741 740 740 740 741 746 746 747 751 755 759 763 767 770 773 775 778 781 784 788 793 797 801 803 807 814 818 819 825 831 836 840 844
763 759 755 751 749 750 751 742 745 744 743 736 736 736 739 738 737 735 734 734 738 742 744 745 748 750 755 759 763 766 769 771 773 777 781 785 789 794 797 803 806 812 816 818 824 831 834 839 844
759 756 750 749 747 746 744 743 740 737 734 731 732 734 733 731 729 728 727 729 731 735 739 742 745 747 751 755 759 763 767 769 771 773 777 781 786 790 794 801 804 809 812 817 823 828 832 839 843
750 751 749 745 744 741 742 735 737 723 726 727 726 725 725 723 720 721 723 722 724 727 731 737 740 743 748 753 756 759 763 767 769 771 773 778 783 787 791 796 802 806 809 815 821 826 832 838 841
748 752 746 741 737 736 734 728 730 717 718 721 719 716 716 714 714 715 712 714 714 717 724 730 736 740 743 748 753 756 759 763 765 767 770 774 779 784 788 793 797 802 808 813 821 826 832 837 841
750 749 751 737 736 731 733 726 718 711 716 716 715 712 709 708 707 706 705 706 710 715 718 724 731 736 739 744 749 753 756 759 762 763 766 771 774 780 783 789 793 798 805 812 817 823 831 836 841
756 748 751 743 732 731 732 723 721 715 716 714 711 708 707 705 702 701 699 700 702 706 712 717 724 730 733 740 745 749 752 755 758 760 763 767 770 775 779 783 788 795 801 810 815 823 828 834 841
750 752 750 744 736 733 730 718 720 719 715 713 710 705 703 701 697 694 694 695 697 701 706 711 718 725 729 736 742 746 749 751 753 755 759 763 767 771 776 780 784 789 798 807 813 819 827 832 838
746 749 751 748 741 739 730 713 718 714 710 706 704 701 697 694 689 687 688 689 693 696 700 705 712 719 724 732 737 742 743 746 749 751 754 759 764 766 771 775 782 788 796 801 809 817 824 832 838
745 747 747 745 737 737 729 705 706 703 698 697 693 687 686 686 683 681 684 686 689 691 695 701 708 713 720 727 732 737 739 742 744 747 750 754 758 763 765 771 777 785 794 799 806 813 822 828 835
744 744 747 746 739 732 729 703 695 691 688 683 680 678 677 674 673 672 678 680 685 687 691 696 703 708 717 722 728 734 737 739 740 742 741 746 751 757 760 766 774 783 790 795 803 809 815 823 831
741 736 738 743 744 739 729 714 693 691 684 678 675 672 670 667 666 664 669 673 678 684 691 696 702 706 714 719 725 729 732 734 735 737 736 738 744 748 754 761 769 779 787 794 800 806 812 819 826
734 734 737 740 742 740 734 737 697 687 678 674 672 665 662 659 657 656 661 669 675 682 686 694 700 705 711 716 722 726 729 731 733 732 733 736 741 747 750 757 768 776 783 790 796 803 810 816 821
731 735 736 737 737 739 723 724 696 686 685 681 673 666 661 656 655 655 659 666 671 680 685 690 696 703 709 714 720 724 726 728 730 731 732 732 739 747 752 759 766 774 781 787 793 800 807 812 819
733 737 735 740 740 727 718 725 696 687 692 689 681 674 666 660 653 656 659 662 668 675 680 686 694 701 707 713 718 722 724 726 728 730 731 734 740 746 752 758 765 773 779 786 793 799 805 810 815
732 732 726 727 727 722 715 709 690 690 689 684 679 673 668 663 657 656 658 659 667 671 679 684 690 698 706 712 717 721 723 725 728 730 731 733 738 745 752 758 766 773 780 785 792 797 802 807 812
731 733 728 732 726 724 707 691 689 684 682 676 672 667 667 664 660 654 656 657 663 668 676 683 690 696 703 711 716 720 722 724 727 730 733 735 739 744 751 757 764 771 777 784 790 794 797 802 807
722 726 734 736 731 725 700 696 686 688 686 679 673 668 665 665 652 645 648 654 663 670 676 683 690 695 702 710 715 720 722 725 728 730 734 737 740 743 748 754 761 768 773 780 786 791 794 798 804
727 730 733 731 728 716 711 692 686 691 686 682 677 674 669 669 660 653 654 657 663 670 677 683 690 695 702 709 714 719 722 725 728 731 734 737 742 746 750 755 760 764 770 776 782 787 791 795 798
718 720 723 729 724 726 721 700 686 689 686 684 682 679 677 672 665 662 661 662 667 670 676 684 689 694 701 707 712 717 721 724 728 731 735 738 742 746 750 754 758 762 766 771 777 781 787 790 793
Wind_Speed
11 7 4 3 3 0 2 5 2 4 3 3 2 4 7 1 5 2 1 20 17 21 20 18 18 18 21 21 21 21 24 29 33 32 32 34 34 34 32 30 30 30 30 27 27 24 25 23 27
14 9 3 3 3 4 4 3 7 6 2 8 5 3 4 4 3 1 8 19 17 20 21 20 19 20 22 22 22 23 26 29 31 30 32 33 33 33 32 31 29 29 27 26 25 25 24 27 28
14 6 2 3 3 11 4 7 9 3 10 3 1 3 2 2 3 4 7 23 18 20 20 20 19 21 22 24 23 22 23 28 30 31 32 33 33 32 31 31 29 27 25 24 24 22 25 28 29
7 3 3 4 10 6 5 2 4 4 2 0 3 9 3 3 3 4 13 26 20 21 20 19 18 21 20 25 24 23 24 26 29 31 32 33 33 33 29 25 27 25 23 24 22 23 25 29 31
5 1 3 4 7 5 5 5 5 6 5 4 3 5 4 3 9 7 17 26 23 22 19 18 18 21 21 24 26 24 24 26 28 30 31 32 33 31 27 24 22 22 22 22 23 25 27 30 31
3 2 3 11 8 6 5 9 5 5 4 4 1 3 5 4 7 13 18 24 22 22 20 18 19 22 23 22 26 27 26 26 29 31 32 28 26 26 26 25 20 20 22 23 25 25 28 29 30
5 4 8 6 4 7 10 9 10 12 9 4 3 3 3 5 5 10 15 22 22 20 20 18 19 22 22 23 24 27 27 28 28 27 28 26 26 26 28 26 23 20 23 25 26 27 29 30 29
4 3 5 5 8 11 6 6 3 10 8 1 2 2 2 2 4 10 15 17 21 21 20 19 20 22 22 22 24 26 28 29 29 30 30 30 29 27 24 23 24 24 25 27 27 28 29 30 29
3 5 7 9 8 8 1 4 2 1 3 2 2 3 2 6 6 11 9 12 17 21 23 22 22 23 23 23 26 26 28 29 31 31 31 31 29 27 25 23 22 25 25 28 29 29 30 31 30
5 7 10 7 11 9 6 10 7 3 5 9 11 11 6 3 6 15 16 17 16 23 25 25 25 25 24 26 26 27 29 30 33 34 32 32 30 28 25 25 25 27 26 30 30 30 31 28 23
5 11 6 4 13 5 11 11 10 12 14 16 15 11 5 7 9 16 21 22 23 18 25 28 27 28 28 29 29 30 31 33 36 35 35 35 34 29 25 30 29 26 27 26 29 31 29 23 23
5 7 11 8 8 7 12 16 15 16 14 15 14 17 11 12 12 16 22 26 21 19 22 28 30 30 30 29 29 32 34 36 38 39 40 40 36 31 28 27 31 31 30 29 30 27 24 23 21
7 6 8 8 12 11 13 17 18 10 14 17 16 11 14 15 16 22 26 23 22 24 24 28 31 32 32 29 30 31 32 35 37 41 43 43 34 32 29 29 32 33 33 33 33 25 27 24 22
5 4 6 8 13 12 17 23 15 17 12 16 15 15 14 17 19 17 18 24 25 26 29 29 32 32 31 31 30 31 32 33 37 38 43 42 37 32 32 27 33 33 34 32 36 27 25 24 23
3 7 7 7 10 10 5 20 16 22 17 16 19 19 16 18 19 17 24 23 28 31 27 32 32 32 32 30 28 30 32 35 35 40 43 42 38 35 33 31 32 35 36 36 30 25 22 21 22
3 4 5 2 3 5 8 15 12 9 9 13 14 15 16 18 16 18 21 22 21 24 27 30 32 32 30 27 26 28 29 31 33 35 34 38 40 33 33 33 34 37 39 35 32 26 23 22 21
1 8 6 6 2 3 8 11 3 17 15 15 15 12 12 13 13 17 19 20 22 25 26 31 32 33 30 25 24 26 27 29 31 31 33 36 35 34 33 36 36 41 41 32 30 25 24 23 20
6 6 5 7 2 12 18 26 17 14 18 18 16 18 14 15 16 19 17 17 18 22 27 32 32 30 25 21 21 22 25 27 30 30 29 31 33 32 36 35 39 41 39 31 29 28 22 25 23
3 4 8 6 8 12 18 25 16 15 17 19 19 19 17 18 18 19 15 12 16 21 26 29 29 29 26 24 22 24 23 26 28 29 30 30 33 34 34 37 38 36 35 35 33 29 28 21 21
13 14 14 8 9 7 14 29 22 22 24 23 22 23 21 20 18 15 10 12 19 22 24 26 27 28 25 21 22 17 20 24 26 29 32 33 35 34 37 39 39 37 30 33 37 33 25 19 25
11 13 8 9 8 11 14 18 7 6 12 19 22 25 23 22 19 15 11 15 18 22 27 27 27 24 21 19 20 17 16 13 21 26 25 37 36 39 39 41 37 34 32 36 38 34 29 19 25
13 9 9 6 4 4 6 10 8 2 8 12 15 15 18 21 19 15 13 15 21 21 22 24 24 23 19 18 19 18 15 15 14 19 21 34 39 39 40 42 39 35 34 32 36 34 32 25 26
4 4 4 4 5 4 4 5 4 12 8 10 15 14 17 19 19 16 13 16 20 21 24 23 21 19 18 21 21 18 14 12 19 14 27 33 32 32 38 38 36 35 34 32 35 34 31 27 26
5 2 3 3 4 5 9 9 3 5 9 22 18 17 14 14 15 9 11 18 21 22 22 23 23 20 19 22 20 18 14 12 13 16 23 25 30 30 33 33 33 32 32 36 36 35 32 32 28
4 3 2 2 4 5 4 9 12 15 8 12 15 17 16 16 8 9 14 14 22 24 25 24 23 22 20 21 20 18 15 13 13 18 21 27 27 27 28 30 29 28 28 31 31 32 35 34 35
9 5 3 3 3 2 3 7 2 3 5 8 13 15 16 15 14 7 12 16 21 24 24 25 25 23 20 20 20 18 16 14 14 18 20 23 28 28 31 29 29 27 23 20 19 27 35 37 33
5 4 0 2 4 4 4 5 5 6 9 12 13 17 21 20 16 12 14 15 22 26 25 24 24 22 22 21 20 18 16 15 14 15 19 22 27 30 33 34 31 29 32 35 33 26 33 36 35
2 4 3 2 2 3 4 6 6 7 13 16 19 19 19 22 20 9 12 15 20 22 22 22 23 22 22 21 21 19 16 14 13 14 17 20 22 30 34 34 34 34 34 38 37 30 28 30 36
4 2 2 1 2 2 2 2 2 8 13 13 16 18 17 20 14 2 6 14 18 19 20 20 22 22 23 23 20 20 17 16 14 14 13 17 22 26 28 30 32 33 35 37 37 34 26 27 31
2 4 4 2 2 2 4 6 4 12 14 12 14 14 15 20 12 5 6 10 15 17 19 19 21 22 22 20 18 19 18 18 17 14 15 16 16 17 22 23 27 29 32 32 33 36 34 27 26
Wind_Direction
188 175 166 64 214 298 228 234 278 244 231 213 149 184 202 145 173 208 312 165 161 174 185 193 195 187 181 183 183 185 187 189 189 185 182 178 175 169 168 164 159 162 158 157 155 149 149 147 147
166 152 93 102 210 225 233 223 218 202 274 301 241 224 201 225 220 179 140 172 168 173 178 187 192 184 178 185 185 185 186 187 186 187 182 179 175 171 169 164 161 162 158 157 153 150 150 151 151
152 150 164 194 186 229 217 208 207 194 306 246 243 248 231 212 188 190 189 174 169 176 180 187 191 182 180 186 187 184 177 187 186 186 183 181 177 173 170 164 163 159 164 159 155 156 156 156 154
150 107 84 225 216 239 216 162 176 309 286 143 11 290 270 226 167 203 184 180 177 181 184 188 194 182 180 185 187 186 178 180 187 187 185 183 180 177 170 168 164 167 163 162 165 161 163 161 159
79 87 182 225 236 256 235 244 261 277 294 275 342 273 237 227 209 204 181 182 181 181 185 188 194 181 185 185 188 188 186 180 184 187 186 185 183 177 169 172 173 171 169 167 168 168 165 165 161
107 128 204 228 228 245 237 241 257 267 267 290 287 259 255 342 197 187 186 181 182 182 182 188 192 183 186 190 191 191 190 188 182 188 191 191 188 179 174 167 179 177 173 171 167 169 167 168 165
176 172 230 226 232 255 253 197 224 251 238 249 179 223 279 322 245 190 187 183 181 186 188 188 189 189 191 192 197 193 193 191 190 191 186 189 183 179 173 177 167 189 178 177 173 173 171 169 168
147 195 195 213 214 246 234 192 220 193 239 302 178 250 310 313 212 183 182 185 182 189 195 194 190 187 194 199 201 198 194 192 190 191 184 180 177 173 174 179 174 187 188 177 177 176 176 171 169
140 223 231 216 191 232 234 213 187 288 267 330 269 243 302 309 183 168 177 188 188 192 198 197 192 189 191 201 204 201 202 195 192 190 188 184 180 173 166 175 175 188 187 182 174 178 176 173 168
201 225 223 209 229 241 250 233 233 236 254 277 279 264 253 229 203 196 197 202 208 196 198 200 193 190 191 200 207 204 203 197 193 190 187 187 184 178 180 193 186 201 195 187 171 180 173 168 162
194 238 209 225 240 252 263 255 255 257 252 256 268 282 223 280 239 223 219 213 211 209 199 199 197 193 194 198 198 206 204 201 197 197 193 191 182 187 188 185 181 190 187 182 178 179 168 168 166
232 221 234 237 232 234 247 269 260 242 247 254 263 270 273 264 249 229 227 220 210 208 209 202 200 196 196 199 196 199 199 197 195 196 190 183 187 192 197 196 191 190 184 181 178 169 169 169 171
231 239 232 241 254 248 258 260 262 254 244 262 260 261 262 265 256 244 234 230 211 210 211 209 202 200 200 201 203 208 202 196 192 192 192 193 198 196 199 200 192 188 184 184 175 171 169 173 173
178 209 257 248 258 259 259 264 263 269 254 250 258 253 252 259 258 260 231 224 213 212 211 208 207 202 201 205 202 208 207 205 202 198 200 201 205 199 197 198 194 188 188 190 182 173 171 175 174
250 284 280 240 236 245 245 265 247 256 269 258 258 262 253 256 265 246 246 232 222 214 206 208 207 206 206 207 210 212 213 210 208 210 206 204 209 208 206 195 186 187 191 188 175 171 171 171 168
262 234 271 230 172 247 195 252 289 249 267 266 260 263 267 262 259 259 256 244 229 216 202 203 206 207 205 210 215 221 224 217 215 217 215 213 216 209 197 192 185 184 185 177 173 169 168 169 173
265 258 225 292 228 301 226 271 333 323 310 301 295 285 277 277 273 262 255 245 222 209 199 201 202 204 205 209 217 225 228 225 220 217 218 211 205 207 193 189 182 186 185 177 172 172 172 172 176
219 237 228 236 272 314 291 278 279 278 287 280 279 283 276 273 267 269 268 255 222 206 203 201 196 197 192 202 211 221 228 225 222 219 212 203 202 194 187 179 182 180 178 174 173 172 175 175 171
219 247 265 277 275 288 278 282 287 281 278 277 268 262 267 270 274 275 271 242 205 193 191 192 183 185 186 193 198 208 210 217 215 212 209 206 196 193 182 183 191 185 176 175 174 167 166 168 168
237 258 265 277 257 282 292 287 288 271 263 259 257 255 254 260 262 265 247 208 205 191 185 182 181 181 182 189 193 202 206 219 214 215 211 213 210 199 192 187 184 180 176 170 174 171 163 164 173
225 237 246 263 292 278 291 284 274 274 251 253 251 252 254 249 250 256 226 208 203 192 185 180 178 174 182 184 190 203 215 222 213 214 206 209 212 202 193 195 186 180 176 176 178 175 171 164 178
245 214 232 239 291 271 13 296 280 283 287 266 265 257 247 247 245 247 226 206 202 191 181 176 175 174 181 184 189 199 207 211 216 211 205 196 202 197 195 187 187 181 179 178 180 180 179 173 176
225 145 184 211 248 282 240 242 324 281 300 332 328 293 256 247 247 243 216 204 191 179 172 172 170 172 177 182 191 192 205 218 218 211 186 178 183 172 169 176 181 180 178 179 180 181 184 185 179
146 199 264 219 224 254 228 216 284 307 358 330 337 333 325 295 260 237 195 178 177 175 166 168 167 172 176 185 191 195 196 192 184 169 155 153 162 163 173 180 184 179 179 182 183 187 189 189 190
161 163 188 197 201 244 187 213 264 313 353 344 341 340 339 330 298 183 178 177 176 175 174 166 170 170 172 182 188 195 190 187 184 175 161 153 154 156 162 167 169 175 182 188 188 188 194 197 203
173 200 223 242 216 196 232 233 233 28 358 12 9 355 344 339 325 240 197 179 183 174 176 171 171 168 171 176 184 188 189 184 187 184 167 162 163 167 170 168 169 170 176 187 199 208 204 206 211
156 201 293 259 236 259 231 258 209 14 4 14 19 10 352 337 318 278 206 187 183 177 176 175 169 164 169 174 177 177 175 182 181 184 182 164 168 180 188 183 186 192 199 201 204 221 218 214 215
187 131 178 203 236 245 243 255 239 358 348 352 4 5 3 341 329 282 196 183 182 178 167 164 168 165 167 170 179 181 179 177 183 185 184 181 173 173 178 190 198 197 197 200 201 217 224 222 223
157 167 228 300 229 280 301 259 146 11 344 335 355 356 8 347 350 24 180 172 172 160 161 159 163 161 162 171 172 180 180 182 180 184 186 188 194 188 184 187 188 185 197 201 202 211 222 230 228
138 157 186 190 142 268 276 265 92 8 8 1 355 0 4 359 347 43 142 151 153 151 151 158 160 160 165 168 167 174 180 186 190 191 188 186 182 186 195 199 202 205 202 204 207 212 219 225 221